Terug naar catalogus

NOAA 16 DEB

ActiefPO
NORAD 41258·DEBRIS·🇺🇸 United States

Gelanceerd Sep 21, 2000 vanaf Vandenberg Space Force Base

Loading…

Volgende Passages (komende 24 uur)

TLE

VersSource: Space-Track

Epoch: Sep 13, 2026, 17:12 UTC

1 41258U 00055FJ  26256.71733200  .00007173  00000-0  13632-2 0  9999
2 41258  98.9721 169.7953 0035633 135.3587 225.0492 14.64085935559514

Volg NOAA 16 DEB in realtime met AllMySat

Download on the App Store